Regional Weather Roundup
Issued by NWS

Current Version | Previous Version | Text Only | Print | Product List | Glossary On
Versions: 1 2 3 4 5 6 7 8 9 10 11 12 13 14 15 16 17 18 19 20 21 22 23 24 25 26 27 28 29 30 31 32 33 34 35 36 37 38 39 40 41 42 43 44 45 46 47 48 49 50
000
ASUS45 KTFX 220019
RWRMT
MONTANA HOURLY WEATHER ROUNDUP
NATIONAL WEATHER SERVICE GREAT FALLS MT
619 PM MDT THU AUG 21 2014

NOTE: "FAIR" INDICATES FEW OR NO CLOUDS BELOW 12000 FEET WITH NO
SIGNIFICANT WEATHER AND/OR OBSTRUCTIONS TO VISIBILITY.

* THESE STATIONS ARE NOT UNDER NWS QUALITY CONTROL. THEY DO NOT
   REPORT WEATHER SUCH AS PRECIPITATION OR FOG.

MTZ001>007-043-220100-
WEST OF THE DIVIDE
CITY           SKY/WX    TMP DP  RH WIND       PRES   REMARKS
KALISPELL      MOCLDY    66  48  52 NE18      30.04S
MISSOULA       LGT RAIN  70  50  49 N14G21    29.99R
BUTTE          CLOUDY    63  46  54 S13       30.08S
MULLAN PASS    MOCLDY    54  46  74 VRB7      30.08F
* ESSEX        N/A       57  44  62 E4G10      N/A
* LINCOLN      N/A       61  48  62 NE14G25    N/A
* LOOKOUT PASS N/A       61  48  62 S9G16      N/A
* POLSON       N/A       63  53  70 N2         N/A
* RONAN APT    MOCLDY    66  54  65 N9         N/A
* SEELEY LAKE  N/A       70  45  41 N7G14      N/A
* THOMP F APT  MOCLDY    58  47  67 NW5G15     N/A
* YAAK HILL    N/A       73  43  34 N/A        N/A
$$

MTZ008-052>055-220100-
SOUTHWEST MONTANA
CITY           SKY/WX    TMP DP  RH WIND       PRES   REMARKS
BOZEMAN        PTCLDY    66  50  56 N7        30.06F
DILLON         TSTM      63  48  58 NE21G26   30.03R
W YELLOWSTONE  LGT RAIN  50  43  77 NW14G23   30.20R
* THREE FORKS  MOCLDY    70  70 100 E5         N/A
* BOULDER HILL N/A       62  42  48 N4         N/A
* MONIDA PASS  N/A       55  42  62 S10        N/A
* RAYNOLDS PAS N/A       51   4  14 N12G17     N/A
* WHITEHALL    N/A       68  52  57 E6G14      N/A
* WISE RIVER   N/A       64  44  48 SE13G20    N/A
$$

MTZ009>010-012-014-046-048-049-054-220100-
EAST SLOPES AND CENTRAL MONTANA
CITY           SKY/WX    TMP DP  RH WIND       PRES   REMARKS
CUT BANK       CLOUDY    54  48  80 N14       30.16R
GREAT FALLS    CLOUDY    64  48  56 N13       30.10R
HELENA         MOCLDY    64  50  61 N18G28    30.05R
MALMSTROM AFB  LGT RAIN  61  54  78 N3        30.11R
* CONRAD       PTCLDY    55  55 100 N8         N/A
* DEARBORN     N/A       63  50  63 N11        N/A
* EAST GLACIER N/A       49  46  89 S4         N/A
* MONARCH      N/A       57  44  62 W3         N/A
* PENDROY      N/A       52  50  93 NE13G19    N/A
* ROGERS PASS  N/A       50  49  96 S4         N/A
* SAINT MARY   N/A       50  49  96 N5G10      N/A
* SWEET GRASS  N/A       52  52 100 N16G21     N/A
* WHITE SULPH  N/A       65  51  61 NE5G11     N/A
$$

MTZ011-013-016-021-035-040-045-047-050-051-220100-
NORTH CENTRAL MONTANA
CITY           SKY/WX    TMP DP  RH WIND       PRES   REMARKS
HAVRE          MOCLDY    64  52  65 N17G26    30.08R
LEWISTOWN      CLOUDY    61  55  81 W8        30.12R
* FORT BENTON  PTCLDY    64  52  65 NW15      30.09R
* CHESTER      N/A       59  48  67 NE13G22    N/A
* DENTON       N/A       64  51  63 NW5        N/A
* GEYSER       N/A       63  47  56 SW12       N/A
* JUDITH GAP   N/A       56  56 100 N8         N/A
* LOMA         N/A       64  53  68 N17G23     N/A
$$

MTZ017>020-022>027-061-062-220100-
NORTHEAST MONTANA
CITY           SKY/WX    TMP DP  RH WIND       PRES   REMARKS
GLASGOW        RAIN      61  61 100 NE8       30.03R VSB 2 1/2
GLENDIVE       PTCLDY    68  61  78 NE8       30.00R
JORDAN         CLOUDY    64  61  90 N15       30.04R
SIDNEY         CLEAR     73  61  66 E6        29.98R
WOLF POINT     TSTM      63  59  87 W9        30.01R VSB 3/4
* BEAVER HILL  N/A       71  60  68 NW11       N/A
* CIRCLE       N/A       63  60  90 N6         N/A
* LINDSAY DVD  N/A       69  56  63 NW8G13     N/A
* SACO         N/A       64  61  90 N9         N/A
$$

MTZ028>042-056>058-220100-
SOUTHCENTRAL AND SOUTHEAST MONTANA
CITY           SKY/WX    TMP DP  RH WIND       PRES   REMARKS
BAKER          MOCLDY    75  57  54 NE7       29.98S
BILLINGS       LGT RAIN  61  57  87 N6        30.09R
LIVINGSTON     PTCLDY    64  52  65 E14       30.09R
MILES CITY     LGT RAIN  72  57  59 NW7       29.99R
* LAUREL APT   CLOUDY    59  55  87 N/A        N/A
* ROUNDUP APT  CLOUDY    59  54  84 N/A        N/A
* ALZADA       N/A       80  50  35 NE7        N/A
* HYSHAM       N/A       62  59  90 NW4        N/A
* LAME DEER    N/A       58  57  96 NW5        N/A
* REED POINT   N/A       65  54  68 NW3        N/A
* ROSCOE HILL  N/A       53  50  90 VRB6       N/A
$$

REGIONAL REPORTS...DAKOTAS
CITY           SKY/WX    TMP DP  RH WIND       PRES   REMARKS
WILLISTON      MOCLDY    75  55  50 NE9       29.96S
DICKINSON      PTCLDY    72  61  68 N12       29.96R
BEACH          N/A       70  63  79 NE8       29.99S
CROSBY         PTCLDY    68  61  78 N6        29.98R
TIOGA          FAIR      68  63  84 N10       30.01R
WATFORD CITY   CLEAR     73  57  57 N7        29.95R
BISMARCK       CLEAR     81  63  54 NW14      29.91R HI  82
GRAND FORKS    CLOUDY    77  68  74 CALM      29.82R
FARGO          PTCLDY    77  70  79 E3        29.81S
BUFFALO SD     PTCLDY    75  55  50 NE20      29.90S
RAPID CITY     MOCLDY    81  61  51 N7        29.95S HI  82
$$

REGIONAL REPORTS...WYOMING/IDAHO/WASHINGTON
CITY           SKY/WX    TMP DP  RH WIND       PRES   REMARKS
GILLETTE       MOCLDY    79  48  34 N7        29.98S
SHERIDAN       RAIN      63  57  81 NW3       30.05S
CODY           MOCLDY    63  54  73 NE8       30.09R
YELLOWSTONE LA PTCLDY    54  43  67 CALM      30.24S
SALMON         CLOUDY    72  48  43 CALM      29.92F
MULLAN PASS    MOCLDY    54  46  74 VRB7      30.08S
SAND POINT     MOCLDY    72  46  40 N10       29.94R
SPOKANE        MOCLDY    79  45  30 W9        29.91F
$$

REGIONAL REPORTS...ALBERTA
CITY           SKY/WX    TMP DP  RH WIND       PRES   REMARKS
CALGARY        CLOUDY    54  45  72 E8        30.20S
LETHBRIDGE     CLOUDY    55  48  77 NE8       30.17S
MEDICINE HAT   MOCLDY    59  52  78 NE8       30.15R
EDMONTON       MOCLDY    59  43  56 NE12      30.21R
WATERTON GATE  N/A       50  46  86 NE6        N/A
CARDSTON       N/A       54  48  80 NE8        N/A
MILK RIVER     N/A       54  52  93 N14        N/A
$$

REGIONAL REPORTS...SASKATCHEWAN
CITY           SKY/WX    TMP DP  RH WIND       PRES   REMARKS
SWIFT CURRENT  LGT RAIN  57  55  93 N14       30.10S
MOOSE JAW      CLOUDY    66  57  73 N12       30.05S
REGINA         MOCLDY    64  55  73 N13G20    30.04R
VAL MARIE      N/A       66  54  65 E8         N/A
ASSINIBOIA     N/A       64  54  70 NE14       N/A
CORONACH       N/A       66  54  65 N15        N/A

$$



USA.gov is the U.S. government's official web portal to all federal, state and local government web resources and services.